Regional Weather Roundup
Issued by NWS Charleston, WV

Home | Current Version | Previous Version | Graphics & Text | Print | Product List | Glossary On
Versions: 1 2 3 4 5 6 7 8 9 10 11 12 13 14 15 16 17 18 19 20 21 22 23 24 25 26 27 28 29 30 31 32 33 34 35 36 37 38 39 40 41 42 43 44 45 46 47 48 49 50
000
ASUS41 KRLX 190910
RWRRLX
West Virginia Regional Weather Roundup
National Weather Service Charleston WV
400 AM EST SUN FEB 19 2017

Note: "fair" indicates few or no clouds below 12,000 feet with no
significant weather and/or obstructions to visibility.

WVZ003-191000-
Northern Panhandle of West Virginia

CITY           SKY/WX    TMP DP  RH WIND       PRES   REMARKS
WHEELING       MOCLDY    47  41  80 SW9       29.89R
$$

WVZ009-191000-
Northwest West Virginia

CITY           SKY/WX    TMP DP  RH WIND       PRES   REMARKS
PARKERSBURG    CLOUDY    47  44  90 SW6       29.96R
$$

WVZ006-191000-
Western West Virginia

CITY           SKY/WX    TMP DP  RH WIND       PRES   REMARKS
HUNTINGTON     CLOUDY    47  45  93 SW5       29.97S
$$

WVZ015-191000-
West Central West Virginia

CITY           SKY/WX    TMP DP  RH WIND       PRES   REMARKS
CHARLESTON     LGT RAIN  47  45  93 SW6       29.97S
$$

WVZ022-031-191000-
North Central West Virginia

CITY           SKY/WX    TMP DP  RH WIND       PRES   REMARKS
CLARKSBURG     CLOUDY    48  42  80 S10       29.92F
MORGANTOWN     CLOUDY    48  43  82 VRB5      29.92R
$$

WVZ025-035-042-045-191000-
Southern West Virginia

CITY           SKY/WX    TMP DP  RH WIND       PRES   REMARKS
BECKLEY        CLOUDY    45  37  73 N3        29.95R
LOGAN          CLOUDY    46  45  93 VRB5G13   29.98R FOG
BLUEFIELD      CLOUDY    44  38  79 W6        29.95S
LEWISBURG      CLOUDY    46  39  76 CALM      29.94R
$$

WVZ047-191000-
Northern Mountains of West Virginia

CITY           SKY/WX    TMP DP  RH WIND       PRES   REMARKS
ELKINS         LGT RAIN  45  42  89 CALM      29.94S
$$

WVZ052-191000-
Eastern Panhandle of West Virginia

CITY           SKY/WX    TMP DP  RH WIND       PRES   REMARKS
MARTINSBURG    CLOUDY    57  42  57 SW9       29.83R
PETERSBURG     CLOUDY    52  49  90 E5        29.88R
$$



USA.gov is the U.S. government's official web portal to all federal, state and local government web resources and services.